Weather History for KPPO - May, 2013

Change the Weather History Date:

Wednesday, May 22, 2013

  Actual Average (KVPZ) Record (KVPZ)
Temperature  
Mean Temperature 67 °F 61 °F  
Max Temperature 75 °F 72 °F 87 °F (2007)
Min Temperature 60 °F 50 °F 36 °F (2006)
Degree Days  
Heating Degree Days 0 6  
Month to date heating degree days 180  
Since 1 July heating degree days 6239  
Cooling Degree Days 2 2  
Month to date cooling degree days 22  
Year to date cooling degree days 27  
Growing Degree Days 17 (Base 50)    
Moisture  
Dew Point 61 °F    
Average Humidity 80    
Maximum Humidity 96    
Minimum Humidity 52    
Precipitation  
Precipitation 0.14 in 0.13 in 0.23 in (2011)
Month to date precipitation 2.78  
Year to date precipitation 11.96  
Sea Level Pressure  
Sea Level Pressure 29.71 in    
Wind  
Wind Speed 7 mph (SW)    
Max Wind Speed 20 mph    
Max Gust Speed 28 mph    
Visibility 10 miles    
Events Rain    
T = Trace of Precipitation, MM = Missing Value Source: NWS Daily Summary

Daily Weather History Graph

Daily Weather History Graph

Search for Another Location

Airport or City:

Trip Planner

Search our weather history database for the weather conditions in past years. The results will help you decide how hot, cold, wet, or windy it might be!

Date:

Astronomy

May. 22, 2013 Rise Set
Actual Time 5:21 AM CDT 8:06 PM CDT
Civil Twilight 4:48 AM CDT 8:38 PM CDT
Nautical Twilight 4:08 AM CDT 9:19 PM CDT
Astronomical Twilight 3:21 AM CDT 10:06 PM CDT
Moon 5:26 PM CDT (5/22) 3:27 AM CDT (5/22)
Length of Visible Light 15h 50m
Length of Day
14h 45m
Waxing Gibbous, 91% of the Moon is Illuminated
May 22
Waxing Gibbous
May 24
Full
May 31
Last Quarter
Jun 8
New
Jun 16
First Quarter

Hourly Weather History & Observations

Time (CDT) Temp. Dew Point Humidity Pressure Visibility Wind Dir Wind Speed Gust Speed Precip Events Conditions
12:15 AM 70.7 °F 62.6 °F 75% 29.73 in 10.0 mi South 5.8 mph - N/A   Overcast
12:35 AM 70.3 °F 63.0 °F 77% 29.73 in 10.0 mi South 4.6 mph - N/A   Overcast
12:55 AM 70.0 °F 63.5 °F 80% 29.73 in 10.0 mi SSW 4.6 mph - N/A   Overcast
1:15 AM 69.8 °F 63.5 °F 80% 29.73 in 10.0 mi SSW 3.5 mph - N/A   Overcast
1:35 AM 69.3 °F 63.9 °F 83% 29.73 in 10.0 mi Calm Calm - N/A   Overcast
1:55 AM 69.1 °F 63.9 °F 83% 29.72 in 10.0 mi South 4.6 mph - N/A   Overcast
2:15 AM 68.9 °F 64.0 °F 84% 29.72 in 10.0 mi South 4.6 mph - N/A   Overcast
4:55 AM 67.5 °F 63.7 °F 88% 29.70 in 10.0 mi South 4.6 mph - N/A   Mostly Cloudy
5:15 AM 67.1 °F 63.5 °F 88% 29.70 in 10.0 mi South 3.5 mph - N/A   Scattered Clouds
5:35 AM 67.1 °F 63.7 °F 89% 29.71 in 10.0 mi South 3.5 mph - N/A   Mostly Cloudy
5:55 AM 67.1 °F 63.7 °F 89% 29.70 in 10.0 mi South 4.6 mph - N/A   Overcast
6:15 AM 67.1 °F 63.5 °F 88% 29.70 in 10.0 mi SSW 5.8 mph - N/A   Overcast
6:35 AM 66.9 °F 62.8 °F 87% 29.70 in 10.0 mi SSW 4.6 mph - N/A   Overcast
6:55 AM 66.6 °F 62.6 °F 87% 29.70 in 10.0 mi SSW 4.6 mph - N/A Rain Light Rain
7:15 AM 66.2 °F 62.8 °F 89% 29.70 in 10.0 mi South 6.9 mph - N/A   Light Drizzle
7:35 AM 65.8 °F 62.8 °F 90% 29.70 in 10.0 mi South 9.2 mph - N/A   Drizzle
7:55 AM 64.9 °F 63.5 °F 95% 29.69 in 7.0 mi South 9.2 mph - N/A   Drizzle
8:15 AM 64.8 °F 63.7 °F 96% 29.69 in 10.0 mi South 4.6 mph - N/A Rain Light Rain
8:35 AM 64.8 °F 63.7 °F 96% 29.69 in 7.0 mi SSW 8.1 mph - N/A   Drizzle
8:55 AM 64.9 °F 63.9 °F 96% 29.69 in 10.0 mi SSW 4.6 mph - N/A Rain Light Rain
9:15 AM 65.3 °F 63.9 °F 95% 29.68 in 10.0 mi SSW 5.8 mph - N/A Rain Light Rain
9:35 AM 65.8 °F 63.7 °F 93% 29.68 in 10.0 mi SSW 8.1 mph - N/A   Overcast
9:55 AM 66.7 °F 63.7 °F 90% 29.69 in 10.0 mi SSW 8.1 mph - N/A   Overcast
10:15 AM 67.6 °F 63.9 °F 88% 29.70 in 10.0 mi SW 11.5 mph 18.4 mph N/A   Overcast
10:35 AM 68.0 °F 63.1 °F 84% 29.70 in 10.0 mi SSW 8.1 mph 17.3 mph N/A   Overcast
10:55 AM 67.6 °F 62.4 °F 83% 29.69 in 10.0 mi SSW 10.4 mph 17.3 mph N/A   Overcast
11:15 AM 69.4 °F 62.1 °F 77% 29.70 in 10.0 mi SSW 16.1 mph 23.0 mph N/A   Overcast
11:35 AM 71.2 °F 62.1 °F 73% 29.69 in 10.0 mi SSW 10.4 mph 17.3 mph N/A   Overcast
11:55 AM 65.7 °F 63.5 °F 93% 29.70 in 7.0 mi South 6.9 mph 16.1 mph 0.02 in Rain Light Rain
12:15 PM 70.9 °F 65.7 °F 83% 29.69 in 10.0 mi SW 17.3 mph 21.9 mph N/A   Mostly Cloudy
12:35 PM 70.5 °F 62.6 °F 76% 29.69 in 7.0 mi SW 19.6 mph 24.2 mph 0.03 in Rain Heavy Rain
12:55 PM 68.4 °F 63.1 °F 83% 29.69 in 10.0 mi SW 16.1 mph 21.9 mph 0.06 in Rain Light Rain
1:15 PM 71.4 °F 63.5 °F 76% 29.68 in 10.0 mi SW 13.8 mph 24.2 mph N/A   Scattered Clouds
1:35 PM 71.8 °F 62.1 °F 71% 29.68 in 10.0 mi SW 18.4 mph 23.0 mph N/A   Mostly Cloudy
1:55 PM 74.3 °F 59.5 °F 60% 29.68 in 10.0 mi SSW 18.4 mph 27.6 mph N/A   Scattered Clouds
2:15 PM 73.9 °F 59.4 °F 60% 29.68 in 10.0 mi SW 19.6 mph 26.5 mph N/A   Scattered Clouds
2:35 PM 65.3 °F 60.3 °F 84% 29.71 in 5.0 mi WSW 12.7 mph - 0.04 in Rain Heavy Rain
2:55 PM 64.4 °F 61.9 °F 92% 29.71 in 7.0 mi SW 4.6 mph - 0.05 in Rain Light Rain
3:15 PM 65.5 °F 62.2 °F 89% 29.71 in 10.0 mi WSW 6.9 mph - N/A   Overcast
3:35 PM 67.1 °F 61.5 °F 82% 29.70 in 10.0 mi West 12.7 mph 16.1 mph N/A   Overcast
3:55 PM 68.9 °F 61.3 °F 77% 29.70 in 10.0 mi West 8.1 mph 16.1 mph N/A   Mostly Cloudy
4:15 PM 68.0 °F 60.4 °F 77% 29.70 in 10.0 mi West 9.2 mph - N/A   Mostly Cloudy
4:35 PM 68.5 °F 60.8 °F 76% 29.70 in 10.0 mi West 10.4 mph - N/A   Mostly Cloudy
4:55 PM 69.6 °F 60.8 °F 73% 29.70 in 10.0 mi WSW 9.2 mph - N/A   Scattered Clouds
5:15 PM 70.9 °F 59.4 °F 67% 29.69 in 10.0 mi West 12.7 mph 16.1 mph N/A   Scattered Clouds
5:35 PM 71.2 °F 56.7 °F 60% 29.69 in 10.0 mi West 11.5 mph 19.6 mph N/A   Scattered Clouds
5:55 PM 71.4 °F 54.1 °F 54% 29.69 in 10.0 mi West 12.7 mph 16.1 mph N/A   Scattered Clouds
6:15 PM 71.1 °F 54.0 °F 55% 29.70 in 10.0 mi West 9.2 mph - N/A   Scattered Clouds
6:35 PM 70.3 °F 52.3 °F 53% 29.70 in 10.0 mi WSW 13.8 mph 19.6 mph N/A   Clear
6:55 PM 69.6 °F 51.4 °F 52% 29.71 in 10.0 mi West 9.2 mph - N/A   Mostly Cloudy
7:15 PM 68.7 °F 52.2 °F 55% 29.71 in 10.0 mi WSW 6.9 mph - N/A   Overcast
7:35 PM 68.4 °F 52.0 °F 56% 29.72 in 10.0 mi WSW 5.8 mph - N/A   Overcast
7:55 PM 65.8 °F 55.6 °F 69% 29.73 in 10.0 mi SW 8.1 mph - 0.01 in Rain Rain
8:15 PM 63.1 °F 58.1 °F 84% 29.73 in 10.0 mi SW 4.6 mph - N/A   Overcast
8:35 PM 63.0 °F 58.5 °F 85% 29.73 in 10.0 mi SW 3.5 mph - N/A   Overcast
8:55 PM 62.6 °F 58.5 °F 86% 29.73 in 10.0 mi WSW 3.5 mph - N/A   Overcast
9:15 PM 63.1 °F 58.1 °F 84% 29.74 in 10.0 mi WSW 4.6 mph - N/A   Mostly Cloudy
9:35 PM 63.5 °F 58.1 °F 83% 29.74 in 10.0 mi WSW 5.8 mph - N/A   Mostly Cloudy
9:55 PM 63.5 °F 58.5 °F 84% 29.75 in 10.0 mi WSW 4.6 mph - N/A   Overcast
10:15 PM 63.5 °F 58.3 °F 83% 29.76 in 10.0 mi SW 4.6 mph - N/A   Overcast
10:35 PM 63.5 °F 58.5 °F 84% 29.76 in 10.0 mi WSW 3.5 mph - N/A   Overcast
10:55 PM 63.0 °F 58.3 °F 85% 29.76 in 10.0 mi WSW 4.6 mph - N/A   Mostly Cloudy
11:15 PM 61.9 °F 57.6 °F 86% 29.76 in 10.0 mi WSW 3.5 mph - N/A   Scattered Clouds
11:35 PM 60.8 °F 57.4 °F 88% 29.76 in 10.0 mi WSW 4.6 mph - N/A   Clear
11:55 PM 61.0 °F 56.3 °F 85% 29.76 in 10.0 mi WSW 4.6 mph - N/A   Scattered Clouds